星链-3843 (STARLINK-3843 )

导读

STARLINK-3843(星链-3843)是美国太空探索技术公司SpaceX研发运营的星链低轨互联网卫星,属于Starlink v1.5平台,2022年4月29日发射入轨,目前在轨稳定运行。该卫星运行于近地轨道,近地点约538.8公里,远地点约540.7公里,轨道倾角53.22度,周期约95.4分钟,为星链星座提供全球高速低延迟互联网接入服务,助力偏远区域网络覆盖。

Basic Information
目录编号:
52341
目录名称:
STARLINK-3843
国际标识:
2022-045L
轨道中心:
EARTH
卫星名称:
星链-3843
卫星全名:
星链-3843 (STARLINK-3843 )
卫星状态:
在轨 (已飞行1510 天)
发射日期:
2022-04-29 UTC
国别 :
美国 (US)
星等 :
--
Orbit Information
数据来源 国际轨道数据 AOE轨道数据
星历时间 2026-06-17T09:14:35+0800
11小时前
查看轨道信息
2026-06-17T02:00:00+0800
18小时前
查看轨道信息
半长轴 6917.899km 6917.91km
偏心率 0.0001367 0.0002051
轨道倾角 53.162° 53.160°
近地点辐角 91.324° 55.693°
升交点赤经 122.926° 124.285°
平近点角 268.791° 104.218°
近地点 538.816km 538.354km
远地点 540.708km 541.192km
周期 95.438分钟 95.438分钟
每日圈数 15.08834 15.088305
Detailed Information
固有亮度:
5
最大亮度:
2.5
卫星平台:
Starlink v1.5
覆盖范围:
全球
运营商:
太空探索技术公司
运营商所在国:
美国
制造商(研发单位):
太空探索技术公司
制造商所在国:
美国
使用方式:
暂无
Satellite Introduction
星链(Starlink)计划是由太空探索技术公司(SpaceX)提出的一个巨型低轨卫星互联网星座项目,计划在2019年至2024年间在太空搭建由约1.2万颗卫星组成的“星链”网络,其中1584颗将部署在地球上空550千米处的近地轨道,并从2020年开始工作。该卫星仍在工作。
2D Orbit Map
3D Orbit Map
Orbit Altitude Analysis Chart
Orbit Inclination Analysis Chart
Orbit Comprehensive Analysis Chart
View Comprehensive Chart